sat.trackr.live / text

‹ back to catalog

STARLINK-37133

NORAD 68265 · 2026-055D

PAYLOAD ACTIVE UNKNOWN

§ Identity

Operator
Country
US
Launch date
2026-03-19
Launch site
AFETR
Launch vehicle
Mass (kg)
RCS (m²)

Purposes: comms

External: N2YO · Heavens-Above · Gunter

§ Orbital elements

Epoch: 2026-09-19T22:52:11.849952Z

Period
93.85 min
Inclination
53.1569°
Eccentricity
0.0000811
Mean motion
15.34406938 rev/d
Perigee alt
462.1 km
Apogee alt
463.2 km
Semi-major
6,840.8 km
B*
3.7617e-4
RAAN
134.0908°
Arg perigee
100.2746°
Mean anomaly
259.8348°
Rev number
2,971

§ Raw data

STARLINK-371331 68265U 26055D   26262.95291493  .00012357  00000+0  37617-3 0  99992 68265  53.1569 134.0908 0000811 100.2746 259.8348 15.34406938 29714

JSON: /api/v1/satellites/68265 · /tle

For live sub-satellite position, see the globe view (requires WebGL).

§ Visibility from observer

Set your observer location to see the next 7 days of passes ≥ 10°. The values pass through the URL so the page stays shareable.

No JS? Fill the form by hand. The geolocation button needs JavaScript.